Other Public Products
Issued by NWS Charleston, SC

Current Version | Previous Version | Graphics & Text | Print | Product List | Glossary On
Versions: 1 2 3 4 5 6 7 8 9 10 11 12 13 14 15 16 17 18 19 20 21 22 23 24 25 26 27 28 29 30 31 32 33 34 35 36 37 38 39 40 41 42 43 44 45 46 47 48 49 50
763
FPUS82 KCHS 282027
OPUCHS

TEST...KCHS/KSAV Gateway Observations...TEST
National Weather Service Charleston SC
400 PM EDT FRI APR 28 2017

NOTE: "fair" indicates few or no clouds below 12,000 feet with no
significant weather and/or obstructions to visibility.

SCZ050-WAZ558-NCZ071-TXZ119-213-PAZ071-DCZ001-FLZ074-172-MI076-
NYZ176-178-MAZ016-IL014-TNZ027-NJZ106-GAZ044-MD014-282100-

...Gateway Observations for Charleston International...

CITY           SKY/WX    TMP DP  RH WIND       PRES   REMARKS
Chas Airport   PTSUNNY   84  73  69 S17       30.08F HX  90
Seattle        PTSUNNY   54  38  54 VRB3      30.36S
Charlotte      MOSUNNY   84  65  52 SW12      30.06F
Dallas DFW     PTSUNNY   88  68  51 S14G22    29.58F HX  91
Dallas Love    CLOUDY    85  68  56 S16       29.60F
Philladelphia  MOSUNNY   84  51  31 W8        30.01F
Wash National  MOSUNNY   83  60  45 S13       30.01F
Baltimore      MOSUNNY   83  57  41 VRB5G17   30.00F
Miami          PTSUNNY   87  71  58 E14G23    30.05F HX  93
Detroit        CLOUDY    62  42  47 S15       30.00F
Newark         MOSUNNY   85  39  19 SW17G25   29.98R
Laguardia      MOSUNNY   82  57  42 S14       29.97R
J F K          MOSUNNY   70  61  73 S15       30.01R
Boston Logan   MOSUNNY   79  62  56 SW7       29.92F
Ft. Lauderdale MOSUNNY   85  73  67 E18       30.06F HX  91
Chicago O`Hare CLOUDY    57  46  66 E10       29.87F
Chicago Midway CLOUDY    56  46  69 E9        29.89F
Houston Bush   MOSUNNY   89  72  56 SE21G26   29.66F HX  96
Houston Hobby  MOSUNNY   86  74  67 SE15G28   29.66F HX  94
Nashville      LGT RAIN  75  68  78 S15       29.91S
Atlanta        MOSUNNY   82  65  56 S12       30.04S

$$

GAZ044-118-TXZ119-213-NCZ071-DCZ001-MDZ014-506-PAZ021-071-NJZ106-
NYZ176-178-MAZ106-OHZ011-021-055-MIZ076-KYZ091-ILZ014-INZ047-
MNZ060-ONZ431-282100-

...Gateway Observations for Savannah International...

CITY           SKY/WX    TMP DP  RH WIND       PRES   REMARKS
Savannah Arpt  MOSUNNY   90  70  51 SE14      30.05F HX  95
Atlanta        MOSUNNY   82  65  56 S12       30.04S
Charlotte      MOSUNNY   84  65  52 SW12      30.06F
Dallas DFW     PTSUNNY   88  68  51 S14G22    29.58F HX  91
Houston Bush   MOSUNNY   89  72  56 SE21G26   29.66F HX  96
Wash National  MOSUNNY   83  60  45 S13       30.01F
Wash Dulles    MOSUNNY   81  58  45 S12       30.00F
Baltimore      MOSUNNY   83  57  41 VRB5G17   30.00F
Philadelphia   MOSUNNY   84  51  31 W8        30.01F
Newark         MOSUNNY   85  39  19 SW17G25   29.98R
Laguardia      MOSUNNY   82  57  42 S14       29.97R
J F K          MOSUNNY   70  61  73 S15       30.01R
Boston         MOSUNNY   79  62  56 SW7       29.92F
Pittsburg      CLOUDY    71  43  36 SW5       30.02F
Akron          CLOUDY    64  46  52 S6        30.02F
Cleveland      CLOUDY    63  44  50 S10       30.05R
Cincinnati     CLOUDY    71  55  56 SE10      29.94F
Columbus       CLOUDY    71  51  49 CALM      29.97F
Detroit        CLOUDY    62  42  47 S15       30.00F
Chicago O`Hare CLOUDY    57  46  66 E10       29.87F
Minneapolis    CLOUDY    48  28  46 NW7       29.95R
Indianapolis   CLOUDY    62  50  64 E8        29.91F
Toronto Canada MOSUNNY   64  43  45 SW14G22   29.96S

$$




USA.gov is the U.S. government's official web portal to all federal, state and local government web resources and services.